Regional Weather Roundup
Issued by NWS Pendleton, OR

Home | Current Version | Previous Version | Text Only | Print | Product List | Glossary On
Versions: 1 2 3 4 5 6 7 8 9 10 11 12 13 14 15 16 17 18 19 20 21 22 23 24 25 26 27 28 29 30 31 32 33 34 35 36 37 38 39 40 41 42 43 44 45 46 47 48 49 50
000
ASUS46 KPDT 260225
RWRPDT
PENDLETON REGIONAL WEATHER ROUNDUP
NATIONAL WEATHER SERVICE PENDLETON OREGON
700 PM PDT SUN SEP 25 2016

NOTE: FAIR INDICATES FEW OR NO CLOUDS BELOW 12,000 FEET WITH NO
SIGNIFICANT WEATHER AND/OR OBSTRUCTIONS TO VISIBILITY.

# INDICATES UNOFFICIAL STATION AND DATA

WAZ520-260310-
EAST SLOPES OF WASHINGTON CASCADES

CITY            SKY/WX      TMP DP  RH  WIND    PRES   REMARKS
#CLE ELUM HS    N/A         73  56  55  CALM    30.23F
#CLE ELUM 2NW   N/A         68  54  61  CALM    N/A
#CLE ELUM LAKE  N/A         68  55  63  CALM    30.22F
#MANASTASH CYN  N/A         63  47  56  CALM    30.30S
#NELSON 3SW     N/A         59  54  83  CALM    30.45F
#NILE           N/A         68  50  53  CALM    29.53F
#RONALD 2NW     N/A         65  N/A N/A E1      30.34S
#TEANAWAY 4NE   N/A         70  51  51  CALM    N/A
#TROUT LAKE 1NE N/A         66  56  70  NW2     30.23S
#TROUT LAKE 1E  N/A         67  56  68  CALM    30.22F
$$

WAZ521-260310-
SIMCOE HIGHLANDS

CITY            SKY/WX      TMP DP  RH  WIND    PRES   REMARKS
#CENTERVILLE 1SWN/A         71  47  42  SE3     30.21R
#GOLDENDALE 1NE N/A         74  28  18  E3      N/A
#GOLDENDALE 4W  N/A         74  54  50  E3      30.29S
#GOODNOE HILLS  N/A         73  43  34  NE3     N/A
#LYLE 6NE       N/A         78  48  35  CALM    30.19S
$$

WAZ026-260310-
KITTITAS VALLEY

CITY            SKY/WX      TMP DP  RH  WIND    PRES   REMARKS
ELLENSBURG AP   PTCLDY      71  50  47  E7      30.29S
#ELLENSBURG CWU N/A         73  51  46  E3      30.18S
#ELLENSBURG 3NE N/A         67  51  56  CALM    30.27S
#ELLENSBURG     N/A         73  49  43  MISG    N/A
#ELLENSBURG 1E  N/A         70  N/A N/A CALM    N/A
#KITTITAS 4N    N/A         68  46  45  NE2     30.29S
#KITTITAS 3S    N/A         65  49  56  SW3     30.22F
#THORP 6N       N/A         71  49  46  SE5     30.26F
$$

WAZ027-260310-
YAKIMA VALLEY

CITY            SKY/WX      TMP DP  RH  WIND    PRES   REMARKS
SUNNYSIDE AP    CLEAR       64  56  75  N3      30.26S
YAKIMA AIRPORT  PTCLDY      73  51  46  CALM    30.28S
YAKIMA-VAGABOND CLEAR       73  44  35  NW2     30.27S
#GRANDVIEW      N/A         71  46  41  CALM    30.26S
#MABTON         N/A         73  52  48  CALM    30.25S
#NACHES 2SW     N/A         71  58  64  CALM    30.32S
#TERRACE HTS    N/A         71  50  47  CALM    30.22F
#TOPPENISH      N/A         75  50  41  CALM    30.16F
#WEST VALLEY    N/A         74  50  43  CALM    30.23F
#WHITE SWAN 5E  N/A         72  50  46  CALM    30.25F
#WILEY CITY 3W  N/A         70  46  42  CALM    30.25F
$$

WAZ028-260310-
LOWER COLUMBIA BASIN...WASHINGTON

CITY            SKY/WX      TMP DP  RH  WIND    PRES   REMARKS
PASCO           PTCLDY      71  49  46  N6      30.25F
PROSSER AWOS    N/A         73  46  38  NE6     30.29S
RICHLAND AWOS   PTCLDY      72  45  38  CALM    30.25F
#BENTON CITY    N/A         74  42  32  S1      30.15F
#CONNELL 5N     N/A         71  45  39  CALM    30.26F
#CONNELL 5NW    N/A         70  50  49  CALM    30.22F
#ELTOPIA 6NW    N/A         72  48  43  CALM    29.23F
#KAHLOTUS       N/A         77  41  28  CALM    30.26F
#KENNEWICK 3S   N/A         74  43  33  CALM    30.25F
#PATERSON       N/A         77  42  29  CALM    30.22S
#TOUCHET 2S     N/A         69  51  53  CALM    30.22F
#WEST PASCO     N/A         73  48  41  CALM    30.25S
$$

WAZ029-260310-
FOOTHILLS OF THE BLUES...WASHINGTON

CITY            SKY/WX      TMP DP  RH  WIND    PRES   REMARKS
WALLA WALLA AP  CLEAR       72  41  33  NE7     30.27F
#CLYDE 6NW      N/A         72  42  34  CALM    30.24F
#DAYTON SCHOOL  N/A         70  39  32  CALM    30.30F
#LOWDEN 2SE     N/A         72  48  43  CALM    30.21F
#PLEASANT VIEW 1N/A         72  40  31  CALM    30.29F
#PRESCOTT       N/A         67  50  54  CALM    30.24F
#WHITMAN COLLEGEN/A         76  44  32  CALM    30.28F
#WAITSBURG 5S   N/A         71  41  34  NE5     30.34F
#WHITMAN MISSIONN/A         78  52  40  CALM    30.25F
$$

WAZ030-260310-
BLUE MOUNTAINS...WASHINGTON

CITY            SKY/WX      TMP DP  RH  WIND    PRES   REMARKS
#DIXIE 5SE      N/A         69  44  40  N7      30.29F
$$

ORZ009-041-WAZ024-260310-
COLUMBIA RIVER GORGE

CITY            SKY/WX      TMP DP  RH  WIND    PRES   REMARKS
HOOD RIVER AP   CLEAR       72  57  59  CALM    30.22S
THE DALLES AP   CLEAR       81  40  23  CALM    30.19F
#ARLINGTON AIRPON/A         72  43  35  E7      30.25S
#CELILO DOT     N/A         81  49  33  E3      N/A
#MARYHILL 2W    N/A         N/A N/A N/A CALM    N/A
#MOSIER 1S      N/A         73  34  24  CALM    30.21S
#MURDOCK        N/A         79  47  32  SE1     30.15S
#RUFUS DOT      N/A         81  47  30  E2      N/A
#SMITHVILLE     N/A         75  44  33  E1      30.13S

$$

ORZ510-260310-
NORTH CENTRAL OREGON

CITY            SKY/WX      TMP DP  RH  WIND    PRES   REMARKS
#ANTELOPE       N/A         73  44  35  NE6     30.09S
#COW CYN RST AREN/A         78  N/A N/A N5      N/A
#DUFUR 9E       N/A         73  41  31  E14     30.26F
#GRASS VALLEY 1SN/A         71  38  30  E6      30.22F
#KENT DOT       N/A         76  29  18  N8      N/A
#SHANIKO 5WSW   N/A         75  37  25  N8      N/A
#TYGH VALLEY 2NEN/A         79  45  30  N7      30.19S
#WAPANITIA AIRPON/A         76  44  32  N2      30.23S
#WASCO AIRPORT  N/A         76  40  27  E5      N/A
#WASCO 5NE      N/A         70  46  42  N1      30.23S
$$

ORZ511-260310-
CENTRAL OREGON

CITY            SKY/WX      TMP DP  RH  WIND    PRES   REMARKS
BEND AIRPORT    CLEAR       75  39  27  N5      30.31S
MADRAS AIRPORT  CLEAR       77  50  39  N6      30.29F
PRINEVILLE AP   CLEAR       75  36  24  N7      30.30F
REDMOND AIRPORT CLEAR       77  37  24  N8      30.30S
#ASHWOOD SCHOOL N/A         78  40  26  CALM    30.22F
#BEND 1SW       N/A         69  43  39  NE1     N/A
#BEND-AWBREY    N/A         74  46  37  CALM    30.21S
#CULVER         N/A         74  47  38  CALM    30.14F
#CULVER 8W      N/A         74  47  38  CALM    30.26F
#LAKE BILLY CHINN/A         74  N/A N/A CALM    30.27F
#MADRAS 4S      N/A         74  20  13  CALM    30.33F
#POWELL BUTTE 3EN/A         82  39  22  N3      N/A
#POWELL BUTTE   N/A         72  41  33  SE3     30.25F
#PRINEVILLE 3N  N/A         72  43  35  N3      30.21F

$$


ORZ509-260310-
EAST SLOPES OF OREGON CASCADES

CITY            SKY/WX      TMP DP  RH  WIND    PRES   REMARKS
#BLUE BOX PASS  N/A         67  N/A N/A N5      N/A
#CAMP SHERMAN   N/A         71  43  36  CALM    30.32R
#LA PINE 4NW    N/A         74  43  33  CALM    30.29S
#LAVA BUTTE DOT N/A         73  34  24  CALM    N/A
#SISTERS AIRPOR N/A         75  51  43  CALM    30.17S
#SISTERS ODOT   N/A         78  N/A N/A NW2     N/A
#SISTERS 3N     N/A         70  38  31  N3      30.26S
#SUNRIVER       N/A         71  44  38  CALM    30.28S
#SUTTLE LK DOT  N/A         70  46  42  N3      N/A
#TUMALO 3W      N/A         74  43  33  N1      30.08S
#WANOGA BUTTE D N/A         67  35  30  E5      N/A

$$

ORZ044-260310-
LOWER COLUMBIA BASIN...OREGON

CITY            SKY/WX      TMP DP  RH  WIND    PRES   REMARKS
HERMISTON       CLEAR       73  37  27  N5      30.24F
#BOARDMAN SCHOOLN/A         73  44  35  CALM    30.23F
#BOARDMAN 8SW   N/A         75  40  28  CALM    30.23F
#I-84 EX 198 DOTN/A         77  44  31  E5      N/A
#UMATILLA       N/A         81  44  27  CALM    30.16F
$$

ORZ507-260310-
NORTHERN FOOTHILLS OF THE BLUES

CITY            SKY/WX      TMP DP  RH  WIND    PRES   REMARKS
PENDLETON AIRPT CLEAR       71  43  36  NE10    30.28F
#ADAMS 3WNW     N/A         68  45  44  NE3     30.26F
#ATHENA         N/A         69  44  40  CALM    30.28F
#CAYUSE         N/A         71  45  39  E1      30.24S
#HELIX SCHOOL   N/A         69  44  40  N1      30.27F
#HELIX 3N       N/A         66  42  42  N3      30.26F
#HELIX 6SW      N/A         68  43  40  CALM    30.27S
#HOLDMAN 5SE    N/A         70  42  36  CALM    30.26F
#HOLDMAN 6E     N/A         69  40  35  S3      30.07F
#M-F GROVE ELEM N/A         71  45  39  CALM    30.24F
#M-FREEWATER 5SEN/A         70  49  47  CALM    30.27S
#PENDLETON DNTN N/A         74  41  30  CALM    30.27S
#PDT AQUATIC CTRN/A         75  43  32  NE3     30.28S
#PDT SUNRIDGE   N/A         73  46  38  NE1     30.28S
#PENDLETON 7NW  N/A         74  48  40  CALM    30.62S
#PILOT ROCK 1S  N/A         71  41  34  CALM    30.29S
#PILOT ROCK     N/A         69  45  42  CALM    30.31S
#TUTUILLA       N/A         70  46  42  CALM    30.27F
#UMAPINE 2E     N/A         67  54  63  CALM    30.23F
#WESTON SCHOOL  N/A         71  40  32  CALM    30.13R

$$

ORZ508-260310-
SOUTHERN FOOTHILLS OF THE BLUES

CITY            SKY/WX      TMP DP  RH  WIND    PRES   REMARKS
LEXINGTON       CLEAR       72  36  27  NE8     30.31F
#AJAX           N/A         72  36  27  N8      28.02F
#CONDON SCHOOL  N/A         70  41  35  N7      30.26S
#CONDON 5W      N/A         68  35  29  NE10    30.31F
#FOSSIL SCHOOL  N/A         75  38  26  CALM    30.23S
#HEPPNER EOC    N/A         73  39  29  E2      30.18F
#HEPPNER 4NE    N/A         65  37  35  E3      30.25F
#LEXINGTON 2SE  N/A         76  38  25  CALM    30.25F
#RUGGS 5NE      N/A         68  35  29  NE8     30.52S
#RUGGS 2SW      N/A         69  37  31  NW1     30.26F

$$

ORZ502-503-260310-
BLUE MOUNTAINS

CITY            SKY/WX      TMP DP  RH  WIND    PRES   REMARKS
MEACHAM         CLEAR       62  39  43  CALM    30.40S
#BATTLE MTN DOT N/A         65  35  33  N3      N/A
#CUTSFORTH PARK N/A         56  47  72  CALM    30.18R
#GREENHORN 9SW  N/A         64  41  43  CALM    26.53R
#HARDMAN 10S    N/A         65  36  34  CALM    30.50R
#HEPPNER 15SE   N/A         59  41  51  E1      25.89S
#LADD CYN SMT   N/A         68  40  36  SE1     N/A
#LADD CREEK ODOTN/A         66  44  45  S2      N/A
#LONG CREEK HS  N/A         62  49  62  W5      30.37F
#N POWDER DOT   N/A         71  44  38  W3      N/A
#PIKES PEAK     N/A         69  45  42  CALM    27.99S
#TOLLGATE       N/A         56  47  72  CALM    30.26F
#TROY SCHOOL    N/A         76  43  31  CALM    30.11S
#UKIAH          N/A         67  41  39  CALM    30.23S
#WESTON 4E      N/A         65  44  46  CALM    30.24F
$$

ORZ505-260310-
JOHN DAY BASIN

CITY            SKY/WX      TMP DP  RH  WIND    PRES   REMARKS
JOHN DAY        CLEAR       72  44  37  CALM    30.36F
#DAYVILLE SCHOOLN/A         76  43  31  CALM    30.24S
#MITCHELL       N/A         70  49  47  CALM    30.45S
#MITCHELL 8NW   N/A         74  41  30  CALM    30.42F
#MONUMENT HS    N/A         72  46  39  CALM    30.22R
#MT. VERNON 5SE N/A         67  44  43  CALM    30.33F
#SPRAY SCHOOL   N/A         70  N/A N/A CALM    N/A
$$

ORZ506-260310-
OCHOCO AND JOHN DAY HIGHLANDS

CITY            SKY/WX      TMP DP  RH  WIND    PRES   REMARKS
#BUCK CREEK DOT N/A         76  41  28  NW2     N/A
#HORSE RIDGE DO N/A         80  34  19  CALM    N/A
#PAULINA SCHOOL N/A         77  40  26  NE1     N/A
#PINE MTN OBS   N/A         66  35  32  SE6     N/A
#PRAIRIE CITY   N/A         70  47  44  CALM    30.50F
#SENECA         N/A         68  N/A N/A NW2     N/A
#SENECA 9NW     N/A         66  43  43  CALM    30.32F
$$

ORZ049-260310-
GRANDE RONDE VALLEY

CITY            SKY/WX      TMP DP  RH  WIND    PRES   REMARKS
LA GRANDE       CLEAR       64  41  43  S6      30.34F
#COVE SCHOOL    N/A         64  47  54  CALM    30.34S
#COVE 6NW       N/A         70  46  42  CALM    30.22S
#ELGIN 3N       N/A         66  38  36  CALM    30.29S
#ELGIN 1E       N/A         71  42  35  CALM    N/A
#IMBLER SCHOOL  N/A         64  45  50  CALM    30.27F
#ISLAND CITY 4N N/A         75  60  60  CALM    30.18F
#LADD CYN DOT   N/A         70  45  41  SE8     N/A
#LA GRANDE ELEM N/A         64  45  50  CALM    30.33F
#UNION 1S       N/A         65  47  52  CALM    30.31S
$$

ORZ050-260310-
WALLOWA COUNTY

CITY            SKY/WX      TMP DP  RH  WIND    PRES   REMARKS
JOSEPH AIRPORT  CLEAR       57  45  64  S7      30.43S
#IMNAHA SCHOOL  N/A         70  44  39  CALM    30.29S
#JOSEPH 3N      N/A         57  43  59  S7      30.39F
#JOSEPH 3W      N/A         59  46  62  SW3     30.25F
#LOSTINE        N/A         63  47  56  S6      30.14S
#LOSTINE 3SE    N/A         60  44  55  CALM    30.34S
#MT HOWARD 8000 N/A         52  41  66  CALM    30.63F
#PROMISE 1S     N/A         63  41  44  CALM    30.44R
#WALLOWA SCHOOL N/A         64  49  58  CALM    30.29S



$$



USA.gov is the U.S. government's official web portal to all federal, state and local government web resources and services.